FDX430 KPDX-KSEA

Flight info

Callsign FDX430
Flight time 0h 33m
Altitude 16000
Route COUGA KRIEG HAWKZ8
Aircraft MD11/H-SDE1E2E3FGHIJ2J3J4J5M1RWXY/LB1D1

Departure

Time 2026-05-08 04:40
Airport Portland International Airport (KPDX)

Arrival

Time 2026-05-08 05:14
Airport Seattle–Tacoma International Airport (KSEA)
Time Latitude Longitude Altitude Speed Heading
2026-05-08 04:19 45.57884 -122.60974 34 ft 0 kts 223°
2026-05-08 04:27 45.57890 -122.60966 35 ft 2 kts 220°
2026-05-08 04:27 45.57902 -122.60950 32 ft 2 kts 223°
2026-05-08 04:27 45.57914 -122.60933 32 ft 2 kts 224°
2026-05-08 04:28 45.57926 -122.60917 33 ft 2 kts 225°
2026-05-08 04:28 45.57937 -122.60900 33 ft 2 kts 226°
2026-05-08 04:28 45.57948 -122.60883 34 ft 2 kts 232°
2026-05-08 04:28 45.57958 -122.60864 33 ft 2 kts 256°
2026-05-08 04:29 45.57959 -122.60848 33 ft 1 kts 272°
2026-05-08 04:29 45.57959 -122.60846 33 ft 0 kts 272°
2026-05-08 04:30 45.57959 -122.60848 33 ft 0 kts 272°
2026-05-08 04:30 45.57960 -122.60856 34 ft 2 kts 273°
2026-05-08 04:30 45.57964 -122.60881 32 ft 5 kts 290°
2026-05-08 04:31 45.58002 -122.60953 35 ft 11 kts 313°
2026-05-08 04:31 45.58054 -122.61028 35 ft 10 kts 315°
2026-05-08 04:31 45.58104 -122.61097 34 ft 10 kts 315°
2026-05-08 04:31 45.58150 -122.61163 35 ft 9 kts 315°
2026-05-08 04:32 45.58194 -122.61225 34 ft 9 kts 315°
2026-05-08 04:32 45.58234 -122.61283 34 ft 8 kts 314°
2026-05-08 04:32 45.58278 -122.61340 34 ft 8 kts 328°
2026-05-08 04:32 45.58327 -122.61335 33 ft 7 kts 30°
2026-05-08 04:33 45.58365 -122.61287 35 ft 8 kts 43°
2026-05-08 04:33 45.58415 -122.61216 35 ft 13 kts 45°
2026-05-08 04:33 45.58496 -122.61101 33 ft 19 kts 45°
2026-05-08 04:33 45.58593 -122.60963 35 ft 19 kts 45°
2026-05-08 04:34 45.58688 -122.60829 35 ft 19 kts 45°
2026-05-08 04:34 45.58779 -122.60699 35 ft 12 kts 45°
2026-05-08 04:34 45.58795 -122.60617 35 ft 8 kts 108°
2026-05-08 04:34 45.58764 -122.60538 35 ft 12 kts 119°
2026-05-08 04:35 45.58714 -122.60410 34 ft 16 kts 119°
2026-05-08 04:35 45.58658 -122.60266 34 ft 17 kts 119°
2026-05-08 04:35 45.58601 -122.60120 35 ft 17 kts 119°
2026-05-08 04:35 45.58545 -122.59977 35 ft 17 kts 119°
2026-05-08 04:36 45.58488 -122.59832 36 ft 17 kts 119°
2026-05-08 04:36 45.58433 -122.59691 36 ft 16 kts 119°
2026-05-08 04:36 45.58381 -122.59555 35 ft 15 kts 119°
2026-05-08 04:36 45.58331 -122.59428 36 ft 15 kts 119°
2026-05-08 04:37 45.58279 -122.59297 36 ft 15 kts 119°
2026-05-08 04:37 45.58228 -122.59166 34 ft 15 kts 119°
2026-05-08 04:37 45.58175 -122.59028 34 ft 16 kts 119°
2026-05-08 04:37 45.58120 -122.58887 34 ft 16 kts 119°
2026-05-08 04:38 45.58063 -122.58743 36 ft 17 kts 119°
2026-05-08 04:38 45.58008 -122.58600 35 ft 16 kts 119°
2026-05-08 04:38 45.57979 -122.58509 35 ft 6 kts 96°
2026-05-08 04:38 45.57980 -122.58500 36 ft 0 kts 87°
2026-05-08 04:39 45.57989 -122.58475 36 ft 8 kts 60°
2026-05-08 04:39 45.58049 -122.58433 36 ft 8 kts 356°
2026-05-08 04:39 45.58086 -122.58474 36 ft 6 kts 300°
2026-05-08 04:39 45.58092 -122.58488 36 ft 0 kts 299°
2026-05-08 04:40 45.58106 -122.58524 37 ft 19 kts 299°
2026-05-08 04:40 45.58289 -122.58996 35 ft 102 kts 299°
2026-05-08 04:40 45.58781 -122.60260 176 ft 173 kts 298°
2026-05-08 04:40 45.59334 -122.61746 1436 ft 165 kts 300°
2026-05-08 04:41 45.59888 -122.63205 2653 ft 170 kts 298°
2026-05-08 04:41 45.60457 -122.64751 3579 ft 190 kts 296°
2026-05-08 04:41 45.61131 -122.66610 3791 ft 228 kts 296°
2026-05-08 04:41 45.61914 -122.68766 4005 ft 256 kts 296°
2026-05-08 04:42 45.62742 -122.71041 4793 ft 263 kts 296°
2026-05-08 04:42 45.63587 -122.73362 5172 ft 259 kts 297°
2026-05-08 04:42 45.64733 -122.75338 5968 ft 262 kts 322°
2026-05-08 04:42 45.66415 -122.76372 6850 ft 270 kts 348°
2026-05-08 04:43 45.68321 -122.76391 7672 ft 278 kts
2026-05-08 04:43 45.70268 -122.76017 8530 ft 284 kts
2026-05-08 04:43 45.72231 -122.75569 9403 ft 288 kts
2026-05-08 04:43 45.74232 -122.75112 10194 ft 298 kts
2026-05-08 04:44 45.76390 -122.74637 10339 ft 330 kts
2026-05-08 04:44 45.78762 -122.74129 10483 ft 359 kts
2026-05-08 04:44 45.81263 -122.73595 11240 ft 366 kts
2026-05-08 04:44 45.83798 -122.73054 12142 ft 371 kts
2026-05-08 04:45 45.86372 -122.72510 13010 ft 376 kts
2026-05-08 04:45 45.88944 -122.71968 13866 ft 381 kts
2026-05-08 04:45 45.91581 -122.71416 14611 ft 387 kts
2026-05-08 04:45 45.94286 -122.70851 14971 ft 392 kts
2026-05-08 04:46 45.96981 -122.70286 15322 ft 391 kts
2026-05-08 04:46 45.99684 -122.69719 15699 ft 394 kts
2026-05-08 04:46 46.02409 -122.69148 15939 ft 396 kts
2026-05-08 04:46 46.05124 -122.68577 15982 ft 386 kts
2026-05-08 04:47 46.07713 -122.68037 15989 ft 369 kts
2026-05-08 04:47 46.10263 -122.67940 15983 ft 364 kts 354°
2026-05-08 04:47 46.12774 -122.68282 15988 ft 362 kts 349°
2026-05-08 04:47 46.15268 -122.68779 15985 ft 362 kts 348°
2026-05-08 04:48 46.17755 -122.69313 15992 ft 361 kts 348°
2026-05-08 04:48 46.20232 -122.69843 15989 ft 361 kts 348°
2026-05-08 04:48 46.22722 -122.70364 15992 ft 362 kts 349°
2026-05-08 04:48 46.25212 -122.70874 15982 ft 362 kts 349°
2026-05-08 04:49 46.27709 -122.71377 15993 ft 362 kts 349°
2026-05-08 04:49 46.30202 -122.71875 15988 ft 362 kts 349°
2026-05-08 04:49 46.32712 -122.72229 15989 ft 363 kts 353°
2026-05-08 04:49 46.35243 -122.72394 15989 ft 364 kts 355°
2026-05-08 04:50 46.37773 -122.72488 15988 ft 364 kts 355°
2026-05-08 04:50 46.40306 -122.72563 15990 ft 363 kts 355°
2026-05-08 04:50 46.42833 -122.72638 15976 ft 363 kts 355°
2026-05-08 04:50 46.45361 -122.72718 15992 ft 364 kts 355°
2026-05-08 04:51 46.47859 -122.72802 15988 ft 363 kts 355°
2026-05-08 04:51 46.50389 -122.72889 15991 ft 363 kts 355°
2026-05-08 04:51 46.52916 -122.72979 15984 ft 363 kts 355°
2026-05-08 04:51 46.55445 -122.73070 15990 ft 363 kts 355°
2026-05-08 04:52 46.57973 -122.73161 15988 ft 363 kts 355°
2026-05-08 04:52 46.60501 -122.73253 15984 ft 363 kts 355°
2026-05-08 04:52 46.63028 -122.73345 15990 ft 363 kts 355°
2026-05-08 04:52 46.65554 -122.73437 15988 ft 363 kts 355°
2026-05-08 04:53 46.68081 -122.73529 15997 ft 363 kts 355°
2026-05-08 04:53 46.70608 -122.73622 15985 ft 363 kts 355°
2026-05-08 04:53 46.73136 -122.73714 15980 ft 363 kts 355°
2026-05-08 04:53 46.75662 -122.73783 15979 ft 364 kts 358°
2026-05-08 04:54 46.78184 -122.73348 15977 ft 368 kts 13°
2026-05-08 04:54 46.80527 -122.71791 15983 ft 373 kts 30°
2026-05-08 04:54 46.82608 -122.69557 15950 ft 366 kts 37°
2026-05-08 04:54 46.84506 -122.67168 15480 ft 356 kts 40°
2026-05-08 04:55 46.86280 -122.64681 14847 ft 353 kts 42°
2026-05-08 04:55 46.88013 -122.62176 14235 ft 349 kts 43°
2026-05-08 04:55 46.89683 -122.59771 14059 ft 331 kts 42°
2026-05-08 04:55 46.90762 -122.58198 13848 ft 323 kts 43°
2026-05-08 04:56 46.92320 -122.55855 13269 ft 319 kts 44°
2026-05-08 04:56 46.93853 -122.53522 12703 ft 316 kts 44°
2026-05-08 04:56 46.95352 -122.51236 12300 ft 308 kts 44°
2026-05-08 04:56 46.97288 -122.48300 11479 ft 292 kts 42°
2026-05-08 04:57 46.98306 -122.47014 11089 ft 283 kts 34°
2026-05-08 04:57 46.99930 -122.45442 10396 ft 278 kts 29°
2026-05-08 04:57 47.01585 -122.44012 9680 ft 275 kts 28°
2026-05-08 04:57 47.03234 -122.42619 8937 ft 272 kts 28°
2026-05-08 04:58 47.04870 -122.41239 8297 ft 274 kts 28°
2026-05-08 04:58 47.06515 -122.39849 7652 ft 270 kts 28°
2026-05-08 04:58 47.08114 -122.38493 7153 ft 259 kts 28°
2026-05-08 04:58 47.09681 -122.37162 6796 ft 262 kts 28°
2026-05-08 04:59 47.11252 -122.35829 6419 ft 259 kts 27°
2026-05-08 04:59 47.12906 -122.34809 6073 ft 256 kts 16°
2026-05-08 04:59 47.14619 -122.34082 5709 ft 256 kts 13°
2026-05-08 04:59 47.16335 -122.33419 5332 ft 254 kts 13°
2026-05-08 05:00 47.18046 -122.32828 5036 ft 250 kts
2026-05-08 05:00 47.19745 -122.33130 4991 ft 246 kts 340°
2026-05-08 05:00 47.21260 -122.34020 4966 ft 221 kts 335°
2026-05-08 05:00 47.22619 -122.34882 5150 ft 219 kts 335°
2026-05-08 05:01 47.24086 -122.35805 5392 ft 245 kts 336°
2026-05-08 05:01 47.25726 -122.36771 5480 ft 262 kts 337°
2026-05-08 05:01 47.27441 -122.37759 5450 ft 262 kts 337°
2026-05-08 05:01 47.29103 -122.38712 5086 ft 257 kts 337°
2026-05-08 05:02 47.30793 -122.39688 4998 ft 261 kts 337°
2026-05-08 05:02 47.32492 -122.40671 4995 ft 263 kts 337°
2026-05-08 05:02 47.34192 -122.41657 4991 ft 263 kts 337°
2026-05-08 05:02 47.35899 -122.42649 4992 ft 263 kts 337°
2026-05-08 05:03 47.37600 -122.43640 4994 ft 263 kts 337°
2026-05-08 05:03 47.39296 -122.44629 4992 ft 263 kts 337°
2026-05-08 05:03 47.41053 -122.45349 4988 ft 264 kts 351°
2026-05-08 05:03 47.42893 -122.45525 4992 ft 266 kts 357°
2026-05-08 05:04 47.44742 -122.45554 4991 ft 266 kts 358°
2026-05-08 05:04 47.46576 -122.45556 4986 ft 256 kts 359°
2026-05-08 05:04 47.48260 -122.45551 4970 ft 231 kts 359°
2026-05-08 05:04 47.49861 -122.45550 4982 ft 229 kts 359°
2026-05-08 05:05 47.51445 -122.45568 4980 ft 228 kts 358°
2026-05-08 05:05 47.53027 -122.45611 4980 ft 227 kts 357°
2026-05-08 05:05 47.54609 -122.45659 4984 ft 227 kts 358°
2026-05-08 05:05 47.56192 -122.45708 4979 ft 227 kts 358°
2026-05-08 05:06 47.57774 -122.45756 4984 ft 227 kts 358°
2026-05-08 05:06 47.59352 -122.45805 4983 ft 227 kts 357°
2026-05-08 05:06 47.60932 -122.45855 4980 ft 227 kts 358°
2026-05-08 05:06 47.62513 -122.45904 4985 ft 227 kts 358°
2026-05-08 05:07 47.64093 -122.45954 4984 ft 227 kts 357°
2026-05-08 05:07 47.65673 -122.46003 4989 ft 227 kts 358°
2026-05-08 05:07 47.67253 -122.46053 4987 ft 227 kts 358°
2026-05-08 05:07 47.68809 -122.45725 4976 ft 228 kts 22°
2026-05-08 05:08 47.70034 -122.44353 4749 ft 223 kts 53°
2026-05-08 05:08 47.70583 -122.42249 4362 ft 225 kts 87°
2026-05-08 05:08 47.70269 -122.40013 4041 ft 221 kts 121°
2026-05-08 05:08 47.69305 -122.38247 4009 ft 222 kts 135°
2026-05-08 05:09 47.68231 -122.36597 3987 ft 222 kts 135°
2026-05-08 05:09 47.67166 -122.34958 3981 ft 212 kts 135°
2026-05-08 05:09 47.66180 -122.33435 3980 ft 204 kts 135°
2026-05-08 05:09 47.65177 -122.31977 3967 ft 201 kts 146°
2026-05-08 05:10 47.63875 -122.31370 3865 ft 198 kts 180°
2026-05-08 05:10 47.61134 -122.31630 3353 ft 195 kts 184°
2026-05-08 05:10 47.59779 -122.31677 3091 ft 196 kts 181°
2026-05-08 05:11 47.58421 -122.31682 2823 ft 195 kts 181°
2026-05-08 05:11 47.57082 -122.31690 2562 ft 186 kts 181°
2026-05-08 05:11 47.55860 -122.31700 2303 ft 175 kts 180°
2026-05-08 05:11 47.54652 -122.31710 2080 ft 173 kts 180°
2026-05-08 05:12 47.53478 -122.31720 1834 ft 163 kts 180°
2026-05-08 05:12 47.52344 -122.31730 1643 ft 163 kts 180°
2026-05-08 05:12 47.51214 -122.31740 1417 ft 162 kts 180°
2026-05-08 05:12 47.50086 -122.31750 1190 ft 162 kts 180°
2026-05-08 05:13 47.48959 -122.31760 961 ft 162 kts 180°
2026-05-08 05:13 47.47825 -122.31771 746 ft 164 kts 180°
2026-05-08 05:13 47.46683 -122.31784 517 ft 163 kts 180°
2026-05-08 05:13 47.45633 -122.31793 402 ft 133 kts 181°
2026-05-08 05:14 47.44865 -122.31800 400 ft 78 kts 180°
2026-05-08 05:14 47.44502 -122.31673 398 ft 37 kts 150°
2026-05-08 05:14 47.44357 -122.31550 399 ft 19 kts 150°
2026-05-08 05:14 47.44280 -122.31455 398 ft 11 kts 120°
2026-05-08 05:15 47.44294 -122.31375 396 ft 7 kts 36°
2026-05-08 05:15 47.44353 -122.31363 400 ft 14 kts
2026-05-08 05:15 47.44462 -122.31362 400 ft 16 kts
2026-05-08 05:15 47.44567 -122.31360 398 ft 15 kts
2026-05-08 05:16 47.44669 -122.31359 400 ft 14 kts
2026-05-08 05:16 47.44769 -122.31359 398 ft 14 kts 360°
2026-05-08 05:16 47.44868 -122.31359 398 ft 15 kts
2026-05-08 05:16 47.44972 -122.31357 401 ft 15 kts
2026-05-08 05:17 47.45077 -122.31356 400 ft 15 kts
2026-05-08 05:17 47.45184 -122.31356 400 ft 15 kts
2026-05-08 05:17 47.45291 -122.31355 397 ft 16 kts
2026-05-08 05:17 47.45403 -122.31354 400 ft 16 kts
2026-05-08 05:18 47.45515 -122.31353 399 ft 16 kts
2026-05-08 05:18 47.45624 -122.31351 400 ft 16 kts
2026-05-08 05:18 47.45733 -122.31350 398 ft 16 kts 359°
2026-05-08 05:18 47.45843 -122.31351 400 ft 16 kts 360°
2026-05-08 05:19 47.45952 -122.31349 400 ft 12 kts
2026-05-08 05:19 47.46004 -122.31322 401 ft 6 kts 51°
2026-05-08 05:19 47.46011 -122.31261 401 ft 7 kts 88°
2026-05-08 05:19 47.46012 -122.31186 401 ft 8 kts 90°
2026-05-08 05:20 47.46011 -122.31099 401 ft 9 kts 90°
2026-05-08 05:20 47.46011 -122.31000 398 ft 10 kts 90°
2026-05-08 05:20 47.46010 -122.30891 398 ft 11 kts 90°
2026-05-08 05:20 47.46010 -122.30771 398 ft 12 kts 90°
2026-05-08 05:21 47.46014 -122.30660 400 ft 8 kts 75°
2026-05-08 05:21 47.46050 -122.30625 398 ft 6 kts 15°
2026-05-08 05:21 47.46098 -122.30620 401 ft 8 kts
2026-05-08 05:21 47.46155 -122.30617 400 ft 8 kts
2026-05-08 05:22 47.46186 -122.30572 398 ft 5 kts 78°
2026-05-08 05:22 47.46185 -122.30513 400 ft 6 kts 90°
2026-05-08 05:22 47.46185 -122.30440 401 ft 8 kts 90°
2026-05-08 05:22 47.46184 -122.30353 401 ft 9 kts 90°
2026-05-08 05:23 47.46183 -122.30256 400 ft 10 kts 93°
2026-05-08 05:23 47.46170 -122.30177 398 ft 4 kts 133°
2026-05-08 05:23 47.46144 -122.30168 399 ft 4 kts 171°
2026-05-08 05:23 47.46109 -122.30166 398 ft 6 kts 180°
2026-05-08 05:24 47.46099 -122.30166 400 ft 1 kts 180°
2026-05-08 05:24 47.46095 -122.30166 400 ft 0 kts 180°